Regional Weather Roundup
Issued by NWS Sioux Falls, SD

Home | Current Version | Previous Version | Graphics & Text | Print | Product List | Glossary Off
Versions: 1 2 3 4 5 6 7 8 9 10 11 12 13 14 15 16 17 18 19 20 21 22 23 24 25 26 27 28 29 30 31 32 33 34 35 36 37 38 39 40 41 42 43 44 45 46 47 48 49 50

000
ASUS43 KFSD 020610
RWRFSD

WEATHER ROUNDUP FOR SE SOUTH DAKOTA/SW MINNESOTA/NW IOWA
NATIONAL WEATHER SERVICE SIOUX FALLS SD
100 AM CDT SUN AUG 02 2015

NOTE: "FAIR" INDICATES FEW OR NO CLOUDS BELOW 12,000 FEET WITH NO
SIGNIFICANT WEATHER AND OR OBSTRUCTIONS TO VISIBILITY.


SDZ038>040-050-052>070-020700-
SOUTHEAST SOUTH DAKOTA

CITY           SKY/WX    TMP DP  RH WIND       PRES   REMARKS
BROOKINGS      CLEAR     70  61  73 S8        29.82S
CHAMBERLAIN    CLEAR     70  60  69 W8        29.83S
6HR MIN TEMP:  66; 6HR MAX TEMP:  87;

HURON          CLEAR     73  61  65 SW10      29.75F
6HR MIN TEMP:  70; 6HR MAX TEMP:  89;

MADISON        FAIR      72  61  68 SW10      29.82F
MITCHELL       CLEAR     72  62  71 SW8       29.79F
6HR MIN TEMP:  71; 6HR MAX TEMP:  87;

SIOUX FALLS    CLEAR     73  63  70 SW7       29.82F
6HR MIN TEMP:  73; 6HR MAX TEMP:  83;

WINNER         FAIR      74  59  59 SW12      29.85F
YANKTON        CLEAR     73  61  64 SW10      29.83F
$$

MNZ071-072-080-081-089-090-097-098-020700-
SOUTHWEST MINNESOTA

CITY           SKY/WX    TMP DP  RH WIND       PRES   REMARKS
FAIRMONT       CLEAR     72  63  73 SW9       29.82F
JACKSON        PTCLDY    72  64  78 SW15      29.84F
LUVERNE        CLEAR     68  64  88 S6        29.84S
MARSHALL       CLEAR     75  61  60 SW17      29.77F
6HR MIN TEMP:  73; 6HR MAX TEMP:  84;

MONTEVIDEO     CLEAR     68  63  83 CALM      29.75F
PIPESTONE      CLEAR     70  66  88 SW8       29.82F
REDWOOD FALLS  CLEAR     73  66  78 SW16      29.74F
TRACY          CLEAR     73  66  78 SW16G22   29.78F
WINDOM         PTCLDY    72  64  78 S12       29.82S
WORTHINGTON    PTCLDY    70  63  78 SW12      29.84S
$$

IAZ001>003-012>014-020>022-031-032-NEZ013-014-SDZ071-020700-
NORTHWEST IOWA

CITY           SKY/WX    TMP DP  RH WIND       PRES   REMARKS
CHEROKEE       PTCLDY    68  68  99 S5        29.87F
DENISON        CLEAR     70  68  94 S3        29.89S
ESTHERVILLE    PTCLDY    70  66  87 SW10      29.84F
LE MARS        CLEAR     68  66  94 CALM      29.87F
ORANGE CITY    CLEAR     66  63  88 S7        29.86F
SHELDON        PTCLDY    70  66  88 SW10      29.84F
SIOUX CITY     CLEAR     68  63  84 E6        29.87F
6HR MIN TEMP:  67; 6HR MAX TEMP:  81;

SPENCER        PTCLDY    71  66  84 S9        29.85F
6HR MIN TEMP:  70; 6HR MAX TEMP:  82;

STORM LAKE     PTCLDY    70  68  94 SW9       29.90S
$$

ABBREVIATIONS USED IN REMARKS
   TC - TEMPERATURE IN CELSIUS
  WCI - WIND CHILL INDEX
   HX - HEAT INDEX
  VSB - VISIBILITY



USA.gov is the U.S. government's official web portal to all federal, state and local government web resources and services.